| time (UTC) | temp F | wind direction | speed MPH | gust MPH | rain 1hr in | rain 24hr in | rain mn in | humidity % | barometer mb |
| 20260510063346 | 48 | 60 | 2.0 | 3.0 | 0.00 | 0.00 | 0.00 | 96 | 1006.1 |
| 20260510063057 | 49 | 281 | 0.0 | 0.0 | 0.00 | 0.24 | 0.00 | 95 | 1005.3 |
| 20260510062843 | 48 | 67 | 2.0 | 2.0 | 0.00 | 0.00 | 0.00 | 96 | 1006.2 |
| 20260510062338 | 48 | 56 | 2.0 | 2.0 | 0.00 | 0.00 | 0.00 | 96 | 1006.2 |
| 20260510061833 | 48 | 57 | 2.0 | 3.0 | 0.00 | 0.00 | 0.00 | 96 | 1006.3 |
| 20260510061557 | 49 | 281 | 0.0 | 0.0 | 0.00 | 0.24 | 0.00 | 95 | 1005.2 |
| 20260510061331 | 48 | 41 | 2.0 | 3.0 | 0.00 | 0.00 | 0.00 | 96 | 1006.3 |
| 20260510060826 | 49 | 59 | 2.0 | 3.0 | 0.00 | 0.00 | 0.00 | 96 | 1006.3 |
| 20260510060324 | 49 | 69 | 2.0 | 3.0 | 0.00 | 0.00 | 0.00 | 96 | 1006.4 |
| 20260510060056 | 49 | 281 | 0.0 | 0.0 | 0.00 | 0.25 | 0.00 | 95 | 1005.8 |
| 20260510055821 | 49 | 53 | 2.0 | 2.0 | 0.00 | 0.00 | 0.00 | 96 | 1007.0 |
| 20260510055319 | 49 | 70 | 2.0 | 3.0 | 0.00 | 0.00 | 0.00 | 96 | 1007.1 |
| 20260510054819 | 48 | 67 | 2.0 | 3.0 | 0.00 | 0.00 | 0.00 | 96 | 1007.5 |
| 20260510054315 | 48 | 45 | 2.0 | 2.0 | 0.00 | 0.00 | 0.00 | 96 | 1007.4 |
| 20260510053810 | 49 | 51 | 2.0 | 2.0 | 0.00 | 0.00 | 0.00 | 96 | 1007.6 |
| 20260510053305 | 49 | 51 | 1.0 | 2.0 | 0.00 | 0.00 | 0.00 | 96 | 1007.4 |
| 20260510052802 | 49 | 65 | 2.0 | 3.0 | 0.00 | 0.00 | 0.00 | 96 | 1007.5 |
| 20260510052257 | 49 | 60 | 2.0 | 3.0 | 0.00 | 0.00 | 0.00 | 96 | 1007.4 |
| 20260510051754 | 49 | 72 | 2.0 | 3.0 | 0.00 | 0.00 | 0.00 | 96 | 1007.5 |
| 20260510051556 | 49 | 281 | 0.0 | 0.0 | 0.00 | 0.26 | 0.00 | 96 | 1006.5 |
| 20260510051250 | 49 | 47 | 2.0 | 3.0 | 0.00 | 0.00 | 0.00 | 96 | 1007.5 |
| 20260510050747 | 49 | 55 | 2.0 | 3.0 | 0.00 | 0.00 | 0.00 | 96 | 1007.5 |
| 20260510050244 | 48 | 44 | 0.0 | 1.0 | 0.00 | 0.00 | 0.00 | 96 | 1007.5 |
| 20260510050056 | 48 | 265 | 0.0 | 0.0 | 0.00 | 0.26 | 0.00 | 96 | 1006.7 |
| 20260510045742 | 48 | 58 | 1.0 | 2.0 | 0.00 | 0.00 | 0.00 | 96 | 1007.7 |
| 20260510045238 | 48 | 68 | 2.0 | 2.0 | 0.00 | 0.00 | 0.00 | 96 | 1007.4 |
| 20260510044735 | 47 | 60 | 0.0 | 2.0 | 0.00 | 0.00 | 0.00 | 96 | 1007.2 |
| 20260510044556 | 48 | 279 | 0.0 | 0.0 | 0.00 | 0.26 | 0.00 | 94 | 1006.4 |
| 20260510044233 | 47 | 58 | 0.0 | 3.0 | 0.00 | 0.00 | 0.00 | 95 | 1006.4 |
| 20260510043727 | 47 | 69 | 2.0 | 3.0 | 0.00 | 0.00 | 0.00 | 95 | 1006.4 |
| 20260510043225 | 47 | 52 | 2.0 | 2.0 | 0.00 | 0.00 | 0.00 | 95 | 1006.1 |
| 20260510043057 | 48 | 279 | 0.0 | 0.0 | 0.00 | 0.26 | 0.00 | 94 | 1005.3 |
| 20260510042722 | 47 | 61 | 2.0 | 2.0 | 0.00 | 0.00 | 0.00 | 95 | 1006.2 |
| 20260510042217 | 47 | 63 | 1.0 | 2.0 | 0.00 | 0.00 | 0.00 | 95 | 1006.3 |
| 20260510041715 | 47 | 53 | 2.0 | 3.0 | 0.00 | 0.00 | 0.00 | 95 | 1006.4 |
| 20260510041212 | 48 | 62 | 2.0 | 4.0 | 0.00 | 0.00 | 0.00 | 95 | 1006.4 |
| 20260510040709 | 48 | 68 | 2.0 | 2.0 | 0.00 | 0.00 | 0.00 | 95 | 1006.1 |
| 20260510040206 | 48 | 88 | 0.0 | 2.0 | 0.00 | 0.00 | 0.00 | 95 | 1006.1 |
| 20260510035701 | 48 | 61 | 2.0 | 3.0 | 0.00 | 0.27 | 0.27 | 95 | 1006.3 |
| 20260510035157 | 47 | 72 | 0.0 | 3.0 | 0.00 | 0.27 | 0.27 | 95 | 1006.2 |
| 20260510034653 | 48 | 48 | 2.0 | 2.0 | 0.00 | 0.27 | 0.27 | 95 | 1006.1 |
| 20260510034556 | 48 | 116 | 0.0 | 1.0 | 0.00 | 0.26 | 0.26 | 93 | 1005.2 |
| 20260510034151 | 48 | 54 | 2.0 | 3.0 | 0.00 | 0.27 | 0.27 | 95 | 1005.8 |
| 20260510033647 | 48 | 58 | 2.0 | 3.0 | 0.00 | 0.27 | 0.27 | 94 | 1006.0 |
| 20260510033145 | 48 | 44 | 0.0 | 2.0 | 0.00 | 0.27 | 0.27 | 94 | 1005.9 |
| 20260510032641 | 48 | 49 | 2.0 | 3.0 | 0.00 | 0.27 | 0.27 | 95 | 1005.4 |
| 20260510032136 | 48 | 79 | 2.0 | 3.0 | 0.00 | 0.27 | 0.27 | 95 | 1005.4 |
| 20260510031632 | 48 | 69 | 2.0 | 3.0 | 0.00 | 0.27 | 0.27 | 95 | 1005.5 |
| 20260510031557 | 48 | 49 | 0.0 | 3.0 | 0.00 | 0.26 | 0.26 | 94 | 1004.5 |
| 20260510031129 | 47 | 57 | 2.0 | 3.0 | 0.00 | 0.27 | 0.27 | 95 | 1005.3 |
| 20260510030628 | 47 | 62 | 2.0 | 3.0 | 0.00 | 0.27 | 0.27 | 95 | 1005.3 |
| 20260510030126 | 48 | 67 | 2.0 | 2.0 | 0.00 | 0.27 | 0.27 | 95 | 1005.2 |
| 20260510025623 | 48 | 76 | 2.0 | 4.0 | 0.00 | 0.27 | 0.27 | 95 | 1005.4 |
| 20260510025121 | 48 | 68 | 2.0 | 2.0 | 0.00 | 0.27 | 0.27 | 95 | 1005.4 |
| 20260510024617 | 48 | 135 | 0.0 | 4.0 | 0.00 | 0.27 | 0.27 | 95 | 1005.3 |
| 20260510024557 | 48 | 118 | 1.0 | 2.0 | 0.00 | 0.26 | 0.26 | 93 | 1004.5 |
| 20260510024114 | 48 | 63 | 3.0 | 3.0 | 0.00 | 0.27 | 0.27 | 94 | 1005.5 |
| 20260510023610 | 48 | 56 | 2.0 | 2.0 | 0.00 | 0.27 | 0.27 | 94 | 1005.5 |
| 20260510023108 | 48 | 63 | 1.0 | 3.0 | 0.00 | 0.27 | 0.27 | 94 | 1005.5 |
| 20260510023057 | 49 | 85 | 0.0 | 1.0 | 0.00 | 0.26 | 0.26 | 92 | 1004.7 |
| 20260510022607 | 48 | 60 | 0.0 | 3.0 | 0.00 | 0.27 | 0.27 | 94 | 1005.6 |
| 20260510022102 | 48 | 75 | 1.0 | 3.0 | 0.00 | 0.27 | 0.27 | 93 | 1005.6 |
| 20260510021558 | 49 | 143 | 0.0 | 2.0 | 0.00 | 0.26 | 0.26 | 91 | 1004.6 |
| 20260510021056 | 49 | 58 | 2.0 | 2.0 | 0.00 | 0.27 | 0.27 | 93 | 1005.3 |
| 20260510020555 | 49 | 79 | 2.0 | 3.0 | 0.00 | 0.27 | 0.27 | 93 | 1005.3 |
| 20260510020056 | 50 | 299 | 0.0 | 2.0 | 0.00 | 0.26 | 0.26 | 90 | 1004.2 |
| 20260510020051 | 49 | 50 | 2.0 | 3.0 | 0.00 | 0.27 | 0.27 | 93 | 1005.2 |
| 20260510015548 | 49 | 62 | 2.0 | 3.0 | 0.00 | 0.27 | 0.27 | 92 | 1005.1 |
| 20260510015044 | 49 | 64 | 2.0 | 3.0 | 0.00 | 0.27 | 0.27 | 92 | 1005.3 |
| 20260510014540 | 50 | 57 | 0.0 | 2.0 | 0.00 | 0.27 | 0.27 | 91 | 1005.3 |
| 20260510014037 | 50 | 63 | 0.0 | 2.0 | 0.00 | 0.27 | 0.27 | 90 | 1005.4 |
| 20260510013532 | 50 | 53 | 2.0 | 2.0 | 0.00 | 0.27 | 0.27 | 90 | 1005.3 |
| 20260510013057 | 51 | 225 | 0.0 | 2.0 | 0.00 | 0.26 | 0.26 | 88 | 1004.2 |
| 20260510013028 | 51 | 85 | 0.0 | 3.0 | 0.00 | 0.27 | 0.27 | 89 | 1005.2 |
| 20260510012522 | 51 | 67 | 2.0 | 2.0 | 0.00 | 0.27 | 0.27 | 88 | 1005.2 |
| 20260510012019 | 52 | 57 | 2.0 | 2.0 | 0.00 | 0.27 | 0.27 | 87 | 1005.0 |
| 20260510011556 | 52 | 215 | 0.0 | 2.0 | 0.00 | 0.26 | 0.26 | 88 | 1004.1 |
| 20260510011518 | 52 | 55 | 2.0 | 3.0 | 0.00 | 0.27 | 0.27 | 87 | 1005.3 |
| 20260510011014 | 52 | 38 | 0.0 | 3.0 | 0.00 | 0.27 | 0.27 | 88 | 1005.3 |
| 20260510010511 | 52 | 54 | 1.0 | 2.0 | 0.00 | 0.27 | 0.27 | 88 | 1005.1 |
| 20260510010056 | 51 | 181 | 0.0 | 3.0 | 0.00 | 0.26 | 0.26 | 89 | 1004.2 |
| 20260510010008 | 51 | 79 | 2.0 | 2.0 | 0.00 | 0.27 | 0.27 | 90 | 1005.1 |
| 20260510005504 | 50 | 72 | 3.0 | 3.0 | 0.00 | 0.27 | 0.27 | 91 | 1005.1 |
| 20260510005002 | 50 | 76 | 1.0 | 3.0 | 0.00 | 0.27 | 0.27 | 90 | 1004.9 |
| 20260510004458 | 50 | 65 | 1.0 | 2.0 | 0.00 | 0.27 | 0.27 | 90 | 1004.9 |
| 20260510003957 | 50 | 68 | 1.0 | 2.0 | 0.00 | 0.27 | 0.27 | 89 | 1005.2 |
| 20260510003453 | 51 | 53 | 2.0 | 2.0 | 0.00 | 0.27 | 0.27 | 88 | 1004.7 |
| 20260510003056 | 52 | 239 | 0.0 | 2.0 | 0.00 | 0.26 | 0.26 | 85 | 1003.8 |
| 20260510002948 | 51 | 54 | 2.0 | 3.0 | 0.00 | 0.27 | 0.27 | 88 | 1004.9 |
| 20260510002445 | 51 | 85 | 0.0 | 2.0 | 0.00 | 0.27 | 0.27 | 87 | 1004.7 |
| 20260510001941 | 52 | 64 | 1.0 | 2.0 | 0.00 | 0.27 | 0.27 | 85 | 1004.8 |
| 20260510001557 | 53 | 239 | 0.0 | 2.0 | 0.00 | 0.26 | 0.26 | 82 | 1003.8 |
| 20260510001439 | 52 | 65 | 2.0 | 2.0 | 0.00 | 0.27 | 0.27 | 84 | 1004.8 |
| 20260510000936 | 52 | 53 | 2.0 | 2.0 | 0.00 | 0.27 | 0.27 | 83 | 1004.8 |
| 20260510000433 | 53 | 55 | 0.0 | 2.0 | 0.00 | 0.27 | 0.27 | 81 | 1004.8 |
| 20260510000056 | 54 | 239 | 0.0 | 3.0 | 0.00 | 0.26 | 0.26 | 80 | 1003.8 |
| 20260509235929 | 53 | 265 | 0.0 | 2.0 | 0.00 | 0.27 | 0.27 | 80 | 1004.7 |
| 20260509235426 | 54 | 234 | 1.0 | 2.0 | 0.00 | 0.27 | 0.27 | 79 | 1004.8 |
| 20260509234922 | 54 | 51 | 0.0 | 3.0 | 0.00 | 0.27 | 0.27 | 79 | 1004.7 |
| 20260509234419 | 54 | 52 | 2.0 | 2.0 | 0.00 | 0.27 | 0.27 | 80 | 1004.4 |
| 20260509233917 | 54 | 58 | 0.0 | 2.0 | 0.00 | 0.27 | 0.27 | 79 | 1004.4 |
| 20260509233414 | 54 | 258 | 3.0 | 4.0 | 0.00 | 0.27 | 0.27 | 78 | 1004.3 |
| 20260509233058 | 55 | 226 | 2.0 | 6.0 | 0.00 | 0.26 | 0.26 | 78 | 1003.1 |
| 20260509232910 | 54 | 230 | 2.0 | 3.0 | 0.00 | 0.27 | 0.27 | 79 | 1004.2 |
| 20260509232408 | 55 | 258 | 3.0 | 5.0 | 0.00 | 0.27 | 0.27 | 77 | 1004.4 |
| 20260509231903 | 55 | 219 | 2.0 | 3.0 | 0.00 | 0.27 | 0.27 | 78 | 1004.2 |
| 20260509231557 | 55 | 231 | 2.0 | 3.0 | 0.00 | 0.26 | 0.26 | 77 | 1003.1 |
| 20260509231400 | 55 | 254 | 3.0 | 3.0 | 0.00 | 0.27 | 0.27 | 78 | 1003.9 |
| 20260509230859 | 55 | 44 | 0.0 | 5.0 | 0.00 | 0.27 | 0.27 | 78 | 1003.8 |
| 20260509230355 | 55 | 311 | 1.0 | 3.0 | 0.00 | 0.27 | 0.27 | 78 | 1003.9 |
| 20260509230057 | 55 | 234 | 1.0 | 5.0 | 0.00 | 0.26 | 0.26 | 79 | 1003.1 |
| 20260509225851 | 55 | 66 | 2.0 | 2.0 | 0.00 | 0.27 | 0.27 | 78 | 1004.3 |
| 20260509225348 | 55 | 216 | 1.0 | 4.0 | 0.00 | 0.27 | 0.27 | 77 | 1004.4 |
| 20260509224843 | 55 | 236 | 4.0 | 5.0 | 0.00 | 0.27 | 0.27 | 78 | 1004.1 |
| 20260509224557 | 55 | 210 | 2.0 | 5.0 | 0.00 | 0.26 | 0.26 | 78 | 1003.1 |
| 20260509224340 | 55 | 249 | 4.0 | 4.0 | 0.00 | 0.27 | 0.27 | 79 | 1004.1 |
| 20260509223837 | 55 | 235 | 0.0 | 3.0 | 0.00 | 0.27 | 0.27 | 77 | 1004.1 |
| 20260509223333 | 55 | 96 | 2.0 | 8.0 | 0.00 | 0.27 | 0.27 | 77 | 1004.0 |
| 20260509223057 | 55 | 239 | 2.0 | 5.0 | 0.00 | 0.26 | 0.26 | 77 | 1003.0 |
| 20260509222831 | 55 | 218 | 2.0 | 5.0 | 0.00 | 0.27 | 0.27 | 77 | 1003.9 |
| 20260509222326 | 56 | 54 | 2.0 | 2.0 | 0.00 | 0.27 | 0.27 | 76 | 1004.0 |
| 20260509221821 | 56 | 297 | 2.0 | 4.0 | 0.00 | 0.27 | 0.27 | 77 | 1004.1 |
| 20260509221556 | 55 | 230 | 2.0 | 3.0 | 0.00 | 0.26 | 0.26 | 78 | 1003.0 |
| 20260509221319 | 56 | 75 | 1.0 | 2.0 | 0.00 | 0.27 | 0.27 | 77 | 1004.0 |
| 20260509220819 | 56 | 244 | 4.0 | 4.0 | 0.00 | 0.27 | 0.27 | 77 | 1004.0 |
| 20260509220315 | 56 | 53 | 2.0 | 2.0 | 0.00 | 0.27 | 0.27 | 78 | 1004.0 |
| 20260509220057 | 55 | 250 | 0.0 | 3.0 | 0.00 | 0.26 | 0.26 | 79 | 1003.1 |
| 20260509215811 | 56 | 228 | 0.0 | 4.0 | 0.00 | 0.27 | 0.27 | 77 | 1004.2 |
| 20260509215308 | 55 | 222 | 2.0 | 3.0 | 0.00 | 0.27 | 0.27 | 80 | 1004.3 |
| 20260509214805 | 55 | 233 | 1.0 | 3.0 | 0.00 | 0.27 | 0.27 | 81 | 1004.2 |
| 20260509214302 | 55 | 73 | 1.0 | 3.0 | 0.00 | 0.27 | 0.27 | 84 | 1004.5 |
| 20260509213759 | 55 | 49 | 0.0 | 2.0 | 0.00 | 0.27 | 0.27 | 82 | 1004.7 |
| 20260509213254 | 55 | 68 | 2.0 | 2.0 | 0.00 | 0.27 | 0.27 | 83 | 1004.5 |
| 20260509213057 | 55 | 159 | 0.0 | 3.0 | 0.00 | 0.26 | 0.26 | 84 | 1003.5 |
| 20260509212752 | 55 | 50 | 0.0 | 3.0 | 0.00 | 0.27 | 0.27 | 83 | 1004.7 |
| 20260509212249 | 55 | 309 | 0.0 | 2.0 | 0.00 | 0.27 | 0.27 | 81 | 1004.7 |
| 20260509211745 | 54 | 53 | 2.0 | 4.0 | 0.00 | 0.27 | 0.27 | 82 | 1004.7 |
| 20260509211556 | 54 | 272 | 1.0 | 3.0 | 0.00 | 0.26 | 0.26 | 84 | 1003.6 |
| 20260509211242 | 54 | 50 | 0.0 | 2.0 | 0.00 | 0.27 | 0.27 | 84 | 1004.6 |
| 20260509210738 | 54 | 65 | 2.0 | 2.0 | 0.00 | 0.27 | 0.27 | 83 | 1004.9 |
| 20260509210236 | 54 | 76 | 2.0 | 3.0 | 0.00 | 0.27 | 0.27 | 81 | 1004.7 |
| 20260509210056 | 53 | 66 | 1.0 | 2.0 | 0.00 | 0.26 | 0.26 | 83 | 1003.7 |
| 20260509205735 | 54 | 56 | 2.0 | 2.0 | 0.00 | 0.27 | 0.27 | 84 | 1004.7 |
| 20260509205230 | 53 | 228 | 0.0 | 2.0 | 0.00 | 0.27 | 0.27 | 83 | 1004.5 |
| 20260509204726 | 53 | 15 | 1.0 | 3.0 | 0.00 | 0.27 | 0.27 | 84 | 1004.8 |
| 20260509204556 | 53 | 97 | 1.0 | 3.0 | 0.01 | 0.26 | 0.26 | 86 | 1003.7 |
| 20260509204223 | 53 | 61 | 2.0 | 2.0 | 0.00 | 0.27 | 0.27 | 85 | 1004.8 |
| 20260509203718 | 53 | 58 | 1.0 | 2.0 | 0.00 | 0.27 | 0.27 | 87 | 1005.0 |
| 20260509203217 | 52 | 56 | 2.0 | 3.0 | 0.00 | 0.27 | 0.27 | 87 | 1004.8 |
| 20260509203057 | 52 | 197 | 0.0 | 1.0 | 0.01 | 0.26 | 0.26 | 88 | 1003.8 |
| 20260509202712 | 52 | 59 | 2.0 | 2.0 | 0.00 | 0.27 | 0.27 | 88 | 1005.0 |
| 20260509202208 | 52 | 54 | 2.0 | 3.0 | 0.02 | 0.27 | 0.27 | 88 | 1004.9 |
| 20260509201703 | 52 | 56 | 2.0 | 2.0 | 0.00 | 0.26 | 0.26 | 87 | 1004.8 |
| 20260509201200 | 52 | 70 | 2.0 | 2.0 | 0.00 | 0.26 | 0.26 | 86 | 1005.1 |
| 20260509200656 | 52 | 47 | 1.0 | 2.0 | 0.00 | 0.26 | 0.26 | 85 | 1005.1 |
| 20260509200151 | 52 | 38 | 0.0 | 2.0 | 0.00 | 0.26 | 0.26 | 88 | 1005.0 |
| 20260509195648 | 52 | 50 | 1.0 | 2.0 | 0.00 | 0.26 | 0.26 | 87 | 1005.1 |
| 20260509195143 | 52 | 231 | 1.0 | 3.0 | 0.00 | 0.26 | 0.26 | 85 | 1005.0 |
| 20260509194643 | 52 | 49 | 1.0 | 2.0 | 0.00 | 0.26 | 0.26 | 85 | 1005.2 |
| 20260509194557 | 52 | 233 | 1.0 | 7.0 | 0.01 | 0.25 | 0.25 | 85 | 1004.2 |
| 20260509194140 | 52 | 57 | 4.0 | 4.0 | 0.00 | 0.26 | 0.26 | 86 | 1005.3 |
| 20260509193636 | 52 | 302 | 0.0 | 4.0 | 0.00 | 0.26 | 0.26 | 86 | 1005.4 |
| 20260509193131 | 52 | 208 | 1.0 | 6.0 | 0.00 | 0.26 | 0.26 | 86 | 1005.3 |
| 20260509193058 | 52 | 233 | 2.0 | 7.0 | 0.01 | 0.25 | 0.25 | 86 | 1004.4 |
| 20260509192628 | 52 | 42 | 2.0 | 5.0 | 0.00 | 0.26 | 0.26 | 88 | 1005.4 |
| 20260509192124 | 52 | 320 | 0.0 | 2.0 | 0.00 | 0.26 | 0.26 | 87 | 1005.4 |
| 20260509191623 | 52 | 260 | 2.0 | 3.0 | 0.00 | 0.26 | 0.26 | 87 | 1005.8 |
| 20260509191556 | 52 | 237 | 1.0 | 9.0 | 0.01 | 0.25 | 0.25 | 87 | 1004.6 |
| 20260509191121 | 52 | 73 | 4.0 | 4.0 | 0.02 | 0.26 | 0.26 | 88 | 1005.7 |
| 20260509190617 | 51 | 249 | 0.0 | 4.0 | 0.02 | 0.26 | 0.26 | 87 | 1005.8 |
| 20260509190115 | 51 | 224 | 0.0 | 4.0 | 0.02 | 0.26 | 0.26 | 88 | 1005.5 |
| 20260509185612 | 52 | 228 | 1.0 | 2.0 | 0.02 | 0.26 | 0.26 | 87 | 1005.6 |
| 20260509185108 | 52 | 243 | 9.0 | 10.0 | 0.02 | 0.26 | 0.26 | 87 | 1005.7 |
| 20260509184606 | 52 | 235 | 2.0 | 7.0 | 0.00 | 0.25 | 0.25 | 86 | 1006.0 |
| 20260509184557 | 52 | 221 | 3.0 | 10.0 | 0.00 | 0.24 | 0.24 | 85 | 1004.8 |
| 20260509184103 | 52 | 66 | 0.0 | 7.0 | 0.00 | 0.25 | 0.25 | 86 | 1005.6 |
| 20260509183558 | 52 | 234 | 2.0 | 3.0 | 0.00 | 0.25 | 0.25 | 89 | 1005.8 |
| 20260509183057 | 52 | 288 | 2.0 | 3.0 | 0.01 | 0.24 | 0.24 | 86 | 1004.8 |
| 20260509183054 | 52 | 49 | 2.0 | 4.0 | 0.00 | 0.25 | 0.25 | 87 | 1005.6 |
| 20260509182551 | 52 | 224 | 1.0 | 5.0 | 0.00 | 0.25 | 0.25 | 87 | 1005.9 |
| 20260509182047 | 52 | 56 | 2.0 | 3.0 | 0.00 | 0.25 | 0.25 | 87 | 1005.8 |
| 20260509181556 | 52 | 86 | 2.0 | 14.0 | 0.01 | 0.24 | 0.24 | 86 | 1004.7 |
| 20260509181546 | 51 | 76 | 0.0 | 5.0 | 0.02 | 0.25 | 0.25 | 87 | 1005.6 |
| 20260509181042 | 51 | 232 | 4.0 | 17.0 | 0.02 | 0.25 | 0.25 | 85 | 1005.6 |
| 20260509180538 | 51 | 255 | 1.0 | 5.0 | 0.02 | 0.25 | 0.25 | 88 | 1005.4 |
| 20260509180056 | 52 | 205 | 2.0 | 7.0 | 0.02 | 0.24 | 0.24 | 86 | 1004.6 |
| 20260509180036 | 51 | 65 | 3.0 | 4.0 | 0.02 | 0.25 | 0.25 | 87 | 1005.4 |
| 20260509175531 | 51 | 75 | 2.0 | 6.0 | 0.00 | 0.24 | 0.24 | 87 | 1005.6 |
| 20260509175028 | 52 | 34 | 2.0 | 4.0 | 0.00 | 0.24 | 0.24 | 90 | 1005.6 |
| 20260509174526 | 51 | 249 | 1.0 | 3.0 | 0.00 | 0.24 | 0.24 | 88 | 1005.6 |
| 20260509174020 | 51 | 82 | 3.0 | 4.0 | 0.00 | 0.24 | 0.24 | 87 | 1005.7 |
| 20260509173514 | 51 | 46 | 1.0 | 7.0 | 0.02 | 0.24 | 0.24 | 88 | 1005.5 |
| 20260509173057 | 51 | 179 | 2.0 | 7.0 | 0.01 | 0.23 | 0.23 | 88 | 1004.7 |
| 20260509173011 | 51 | 86 | 0.0 | 4.0 | 0.05 | 0.24 | 0.24 | 88 | 1005.4 |
| 20260509172508 | 51 | 253 | 0.0 | 4.0 | 0.02 | 0.24 | 0.24 | 88 | 1005.7 |
| 20260509172004 | 51 | 222 | 2.0 | 4.0 | 0.02 | 0.24 | 0.24 | 89 | 1005.6 |
| 20260509171500 | 51 | 223 | 1.0 | 12.0 | 0.02 | 0.24 | 0.24 | 88 | 1005.7 |
| 20260509170956 | 51 | 247 | 2.0 | 5.0 | 0.00 | 0.23 | 0.23 | 89 | 1005.6 |
| 20260509170452 | 51 | 243 | 3.0 | 4.0 | 0.02 | 0.23 | 0.23 | 89 | 1005.7 |
| 20260509170056 | 51 | 262 | 1.0 | 6.0 | 0.02 | 0.23 | 0.22 | 90 | 1004.8 |
| 20260509165948 | 51 | 15 | 2.0 | 4.0 | 0.02 | 0.23 | 0.23 | 89 | 1005.7 |
| 20260509165447 | 51 | 282 | 2.0 | 7.0 | 0.00 | 0.23 | 0.23 | 90 | 1005.6 |
| 20260509164943 | 51 | 54 | 0.0 | 3.0 | 0.00 | 0.23 | 0.23 | 92 | 1005.9 |
| 20260509164557 | 51 | 235 | 0.0 | 6.0 | 0.02 | 0.24 | 0.22 | 92 | 1004.8 |
| 20260509164439 | 51 | 61 | 2.0 | 2.0 | 0.00 | 0.23 | 0.23 | 91 | 1005.7 |
| 20260509163935 | 51 | 252 | 2.0 | 3.0 | 0.02 | 0.23 | 0.23 | 92 | 1005.8 |
| 20260509163433 | 50 | 66 | 2.0 | 9.0 | 0.05 | 0.23 | 0.23 | 91 | 1005.8 |
| 20260509163057 | 50 | 234 | 1.0 | 3.0 | 0.03 | 0.27 | 0.22 | 94 | 1005.0 |
| 20260509162931 | 50 | 35 | 0.0 | 4.0 | 0.02 | 0.22 | 0.22 | 93 | 1006.0 |
| 20260509162431 | 50 | 60 | 3.0 | 4.0 | 0.02 | 0.22 | 0.22 | 94 | 1005.9 |
| 20260509161926 | 50 | 36 | 1.0 | 3.0 | 0.05 | 0.22 | 0.22 | 94 | 1005.9 |
| 20260509161557 | 50 | 231 | 1.0 | 2.0 | 0.03 | 0.28 | 0.21 | 95 | 1005.1 |
| 20260509161422 | 50 | 212 | 0.0 | 2.0 | 0.05 | 0.22 | 0.22 | 94 | 1006.0 |
| 20260509160918 | 50 | 70 | 0.0 | 3.0 | 0.02 | 0.21 | 0.21 | 94 | 1006.0 |
| 20260509160414 | 50 | 42 | 1.0 | 2.0 | 0.00 | 0.21 | 0.21 | 95 | 1006.1 |
| 20260509160056 | 50 | 264 | 0.0 | 3.0 | 0.02 | 0.27 | 0.20 | 96 | 1005.2 |
| 20260509155909 | 50 | 44 | 2.0 | 2.0 | 0.02 | 0.21 | 0.21 | 95 | 1006.1 |
| 20260509155406 | 50 | 34 | 0.0 | 2.0 | 0.02 | 0.20 | 0.20 | 95 | 1006.1 |
| 20260509154902 | 50 | 76 | 2.0 | 2.0 | 0.02 | 0.20 | 0.20 | 95 | 1006.2 |
| 20260509154359 | 50 | 46 | 2.0 | 2.0 | 0.02 | 0.20 | 0.20 | 95 | 1006.6 |
| 20260509153855 | 50 | 45 | 2.0 | 2.0 | 0.02 | 0.20 | 0.20 | 95 | 1006.4 |
| 20260509153353 | 50 | 47 | 2.0 | 3.0 | 0.02 | 0.20 | 0.20 | 95 | 1006.3 |
| 20260509153056 | 50 | 5 | 0.0 | 1.0 | 0.03 | 0.26 | 0.19 | 96 | 1005.5 |
| 20260509152850 | 50 | 62 | 1.0 | 2.0 | 0.05 | 0.20 | 0.20 | 95 | 1006.4 |
| 20260509152346 | 50 | 65 | 1.0 | 3.0 | 0.05 | 0.19 | 0.19 | 95 | 1006.8 |
| 20260509151843 | 50 | 44 | 3.0 | 4.0 | 0.02 | 0.19 | 0.19 | 95 | 1006.6 |
| 20260509151556 | 50 | 355 | 0.0 | 0.0 | 0.03 | 0.25 | 0.18 | 96 | 1005.7 |
| 20260509151339 | 50 | 60 | 2.0 | 2.0 | 0.05 | 0.19 | 0.19 | 95 | 1006.8 |
| 20260509150838 | 50 | 36 | 2.0 | 3.0 | 0.05 | 0.18 | 0.18 | 95 | 1006.7 |
| 20260509150335 | 49 | 47 | 2.0 | 3.0 | 0.05 | 0.18 | 0.18 | 95 | 1006.7 |
| 20260509145832 | 49 | 67 | 2.0 | 2.0 | 0.05 | 0.18 | 0.18 | 95 | 1006.9 |
| 20260509145327 | 49 | 36 | 1.0 | 2.0 | 0.02 | 0.17 | 0.17 | 95 | 1006.7 |
| 20260509144824 | 49 | 39 | 2.0 | 3.0 | 0.02 | 0.17 | 0.17 | 96 | 1006.9 |
| 20260509144556 | 49 | 281 | 0.0 | 2.0 | 0.02 | 0.24 | 0.17 | 97 | 1005.9 |
| 20260509144321 | 49 | 63 | 0.0 | 2.0 | 0.02 | 0.17 | 0.17 | 96 | 1006.8 |
| 20260509143818 | 49 | 64 | 2.0 | 3.0 | 0.02 | 0.17 | 0.17 | 96 | 1006.8 |
| 20260509143315 | 49 | 56 | 2.0 | 3.0 | 0.02 | 0.16 | 0.16 | 96 | 1006.9 |
| 20260509143057 | 49 | 281 | 0.0 | 0.0 | 0.02 | 0.23 | 0.16 | 97 | 1006.0 |
| 20260509142811 | 49 | 73 | 1.0 | 3.0 | 0.02 | 0.16 | 0.16 | 96 | 1006.8 |
| 20260509142307 | 49 | 63 | 2.0 | 3.0 | 0.00 | 0.16 | 0.16 | 96 | 1007.0 |
| 20260509141803 | 49 | 46 | 1.0 | 2.0 | 0.02 | 0.16 | 0.16 | 96 | 1007.1 |
| 20260509141300 | 49 | 51 | 1.0 | 2.0 | 0.02 | 0.16 | 0.16 | 96 | 1006.8 |
| 20260509140757 | 48 | 54 | 2.0 | 2.0 | 0.02 | 0.15 | 0.15 | 97 | 1007.0 |
| 20260509140254 | 48 | 78 | 2.0 | 3.0 | 0.02 | 0.15 | 0.15 | 97 | 1006.8 |
| 20260509140056 | 48 | 281 | 0.0 | 1.0 | 0.02 | 0.22 | 0.15 | 97 | 1005.9 |
| 20260509135752 | 48 | 62 | 1.0 | 3.0 | 0.00 | 0.15 | 0.15 | 97 | 1007.0 |
| 20260509135249 | 48 | 57 | 2.0 | 3.0 | 0.02 | 0.15 | 0.15 | 97 | 1006.8 |
| 20260509134746 | 48 | 74 | 2.0 | 3.0 | 0.02 | 0.15 | 0.15 | 97 | 1006.9 |
| 20260509134243 | 48 | 59 | 1.0 | 2.0 | 0.02 | 0.15 | 0.15 | 97 | 1006.7 |
| 20260509133740 | 48 | 60 | 2.0 | 3.0 | 0.02 | 0.15 | 0.15 | 97 | 1006.8 |
| 20260509133237 | 48 | 50 | 3.0 | 3.0 | 0.00 | 0.14 | 0.14 | 97 | 1006.9 |
| 20260509133057 | 48 | 281 | 0.0 | 1.0 | 0.02 | 0.22 | 0.14 | 97 | 1005.8 |
| 20260509132736 | 48 | 42 | 2.0 | 3.0 | 0.02 | 0.14 | 0.14 | 97 | 1006.7 |
| 20260509132234 | 48 | 52 | 3.0 | 3.0 | 0.02 | 0.14 | 0.14 | 97 | 1006.6 |
| 20260509131730 | 48 | 54 | 2.0 | 2.0 | 0.00 | 0.14 | 0.14 | 97 | 1006.8 |
| 20260509131557 | 48 | 281 | 0.0 | 1.0 | 0.02 | 0.22 | 0.14 | 97 | 1005.8 |
| 20260509131227 | 48 | 40 | 1.0 | 2.0 | 0.02 | 0.14 | 0.14 | 97 | 1006.4 |
| 20260509130723 | 48 | 41 | 1.0 | 2.0 | 0.02 | 0.14 | 0.14 | 97 | 1006.6 |
| 20260509130219 | 48 | 34 | 2.0 | 2.0 | 0.00 | 0.13 | 0.13 | 97 | 1006.7 |
| 20260509125715 | 47 | 59 | 3.0 | 3.0 | 0.02 | 0.13 | 0.13 | 97 | 1006.3 |
| 20260509125213 | 47 | 43 | 1.0 | 2.0 | 0.02 | 0.13 | 0.13 | 97 | 1006.8 |
| 20260509124709 | 47 | 46 | 2.0 | 3.0 | 0.02 | 0.13 | 0.13 | 97 | 1006.8 |
| 20260509124556 | 47 | 281 | 0.0 | 1.0 | 0.02 | 0.21 | 0.13 | 97 | 1005.8 |
| 20260509124206 | 47 | 76 | 2.0 | 2.0 | 0.02 | 0.13 | 0.13 | 97 | 1006.9 |
| 20260509123704 | 47 | 69 | 2.0 | 2.0 | 0.02 | 0.13 | 0.13 | 97 | 1006.9 |
| 20260509123201 | 47 | 62 | 3.0 | 3.0 | 0.02 | 0.12 | 0.12 | 97 | 1006.8 |
| 20260509123057 | 47 | 281 | 0.0 | 1.0 | 0.01 | 0.20 | 0.12 | 97 | 1005.9 |
| 20260509122656 | 47 | 35 | 2.0 | 2.0 | 0.05 | 0.12 | 0.12 | 97 | 1006.8 |
| 20260509122153 | 47 | 51 | 2.0 | 3.0 | 0.02 | 0.12 | 0.12 | 97 | 1006.7 |
| 20260509121650 | 47 | 71 | 2.0 | 2.0 | 0.02 | 0.11 | 0.11 | 97 | 1006.9 |
| 20260509121556 | 47 | 281 | 0.0 | 1.0 | 0.01 | 0.20 | 0.12 | 97 | 1006.0 |
| 20260509121148 | 47 | 78 | 3.0 | 4.0 | 0.02 | 0.11 | 0.11 | 97 | 1006.8 |
| 20260509120646 | 47 | 53 | 0.0 | 2.0 | 0.02 | 0.11 | 0.11 | 97 | 1006.9 |
| 20260509120143 | 47 | 98 | 1.0 | 2.0 | 0.02 | 0.11 | 0.11 | 97 | 1006.8 |
| 20260509120057 | 47 | 281 | 0.0 | 1.0 | 0.00 | 0.19 | 0.11 | 97 | 1005.9 |
| 20260509115641 | 47 | 39 | 3.0 | 3.0 | 0.00 | 0.11 | 0.11 | 97 | 1006.9 |
| 20260509115138 | 47 | 49 | 2.0 | 3.0 | 0.00 | 0.11 | 0.11 | 97 | 1006.8 |
| 20260509114636 | 46 | 54 | 2.0 | 3.0 | 0.00 | 0.11 | 0.11 | 97 | 1007.0 |
| 20260509114557 | 47 | 281 | 0.0 | 1.0 | 0.00 | 0.19 | 0.11 | 97 | 1005.9 |
| 20260509114135 | 47 | 69 | 3.0 | 3.0 | 0.00 | 0.11 | 0.11 | 97 | 1006.9 |
| 20260509113633 | 46 | 59 | 2.0 | 2.0 | 0.00 | 0.11 | 0.11 | 97 | 1007.0 |
| 20260509113130 | 46 | 68 | 2.0 | 3.0 | 0.00 | 0.11 | 0.11 | 97 | 1007.0 |
| 20260509113057 | 47 | 281 | 0.0 | 1.0 | 0.00 | 0.19 | 0.11 | 97 | 1005.9 |
| 20260509112626 | 46 | 55 | 2.0 | 3.0 | 0.00 | 0.11 | 0.11 | 97 | 1006.9 |
| 20260509112124 | 46 | 65 | 2.0 | 3.0 | 0.00 | 0.11 | 0.11 | 97 | 1007.0 |
| 20260509111620 | 46 | 76 | 0.0 | 2.0 | 0.00 | 0.11 | 0.11 | 97 | 1007.2 |
| 20260509111556 | 46 | 281 | 0.0 | 1.0 | 0.00 | 0.19 | 0.11 | 97 | 1006.3 |
| 20260509111117 | 46 | 66 | 2.0 | 3.0 | 0.00 | 0.11 | 0.11 | 97 | 1007.2 |
| 20260509110614 | 46 | 70 | 2.0 | 2.0 | 0.00 | 0.11 | 0.11 | 97 | 1007.2 |
| 20260509110112 | 46 | 49 | 2.0 | 2.0 | 0.00 | 0.11 | 0.11 | 97 | 1007.2 |
| 20260509110057 | 46 | 281 | 0.0 | 0.0 | 0.00 | 0.19 | 0.11 | 97 | 1006.2 |
| 20260509105610 | 46 | 60 | 2.0 | 2.0 | 0.00 | 0.11 | 0.11 | 97 | 1007.0 |
| 20260509105107 | 46 | 63 | 2.0 | 2.0 | 0.00 | 0.11 | 0.11 | 97 | 1007.3 |
| 20260509104603 | 46 | 55 | 2.0 | 2.0 | 0.00 | 0.11 | 0.11 | 97 | 1007.3 |
| 20260509104556 | 46 | 281 | 0.0 | 0.0 | 0.01 | 0.19 | 0.11 | 96 | 1006.2 |
| 20260509104100 | 46 | 54 | 1.0 | 2.0 | 0.00 | 0.11 | 0.11 | 97 | 1007.3 |
| 20260509103558 | 46 | 49 | 2.0 | 2.0 | 0.00 | 0.11 | 0.11 | 97 | 1007.1 |
| 20260509103056 | 46 | 34 | 0.0 | 2.0 | 0.00 | 0.11 | 0.11 | 97 | 1007.1 |
| 20260509102553 | 46 | 57 | 1.0 | 2.0 | 0.00 | 0.11 | 0.11 | 97 | 1007.1 |
| 20260509102050 | 46 | 62 | 2.0 | 2.0 | 0.00 | 0.11 | 0.11 | 97 | 1007.1 |
| 20260509101546 | 46 | 66 | 2.0 | 2.0 | 0.00 | 0.11 | 0.11 | 97 | 1007.0 |
| 20260509101043 | 46 | 69 | 2.0 | 2.0 | 0.00 | 0.11 | 0.11 | 97 | 1006.9 |
| 20260509100540 | 46 | 59 | 2.0 | 2.0 | 0.00 | 0.11 | 0.11 | 97 | 1007.1 |
| 20260509100055 | 46 | 281 | 0.0 | 1.0 | 0.02 | 0.19 | 0.11 | 96 | 1006.1 |
| 20260509100038 | 46 | 65 | 2.0 | 2.0 | 0.02 | 0.11 | 0.11 | 97 | 1007.1 |
| 20260509095534 | 46 | 46 | 2.0 | 2.0 | 0.02 | 0.11 | 0.11 | 97 | 1007.4 |
| 20260509095032 | 46 | 61 | 2.0 | 2.0 | 0.02 | 0.10 | 0.10 | 97 | 1007.4 |
| 20260509094557 | 46 | 281 | 0.0 | 1.0 | 0.01 | 0.18 | 0.10 | 96 | 1006.4 |
| 20260509094528 | 46 | 68 | 2.0 | 2.0 | 0.02 | 0.10 | 0.10 | 97 | 1007.4 |
| 20260509094025 | 46 | 47 | 1.0 | 2.0 | 0.02 | 0.10 | 0.10 | 97 | 1007.6 |
| 20260509093523 | 46 | 49 | 1.0 | 2.0 | 0.02 | 0.10 | 0.10 | 97 | 1007.1 |
| 20260509093021 | 46 | 66 | 0.0 | 1.0 | 0.00 | 0.09 | 0.09 | 97 | 1007.1 |
| 20260509092518 | 46 | 60 | 0.0 | 2.0 | 0.00 | 0.09 | 0.09 | 97 | 1007.2 |
| 20260509092017 | 46 | 58 | 1.0 | 2.0 | 0.00 | 0.09 | 0.09 | 97 | 1007.1 |
| 20260509091514 | 46 | 65 | 2.0 | 2.0 | 0.00 | 0.09 | 0.09 | 97 | 1007.3 |
| 20260509091010 | 46 | 44 | 0.0 | 1.0 | 0.00 | 0.09 | 0.09 | 97 | 1007.3 |
| 20260509090508 | 46 | 60 | 2.0 | 2.0 | 0.00 | 0.09 | 0.09 | 97 | 1007.3 |
| 20260509090056 | 46 | 281 | 0.0 | 1.0 | 0.00 | 0.17 | 0.09 | 96 | 1006.4 |
| 20260509090006 | 46 | 50 | 2.0 | 2.0 | 0.00 | 0.09 | 0.09 | 97 | 1007.3 |
| 20260509085502 | 46 | 46 | 2.0 | 2.0 | 0.00 | 0.09 | 0.09 | 96 | 1007.3 |
| 20260509084958 | 46 | 66 | 2.0 | 2.0 | 0.00 | 0.09 | 0.09 | 96 | 1007.4 |
| 20260509084556 | 46 | 281 | 0.0 | 1.0 | 0.01 | 0.17 | 0.09 | 96 | 1006.3 |
| 20260509084455 | 45 | 69 | 2.0 | 2.0 | 0.00 | 0.09 | 0.09 | 96 | 1007.4 |
| 20260509083953 | 45 | 67 | 1.0 | 2.0 | 0.02 | 0.09 | 0.09 | 96 | 1007.2 |
| 20260509083450 | 45 | 47 | 2.0 | 3.0 | 0.02 | 0.09 | 0.09 | 96 | 1007.4 |
| 20260509083057 | 46 | 281 | 0.0 | 0.0 | 0.01 | 0.17 | 0.09 | 95 | 1006.4 |
| 20260509082946 | 45 | 71 | 2.0 | 2.0 | 0.02 | 0.09 | 0.09 | 96 | 1007.6 |
| 20260509082444 | 45 | 62 | 1.0 | 3.0 | 0.02 | 0.09 | 0.09 | 96 | 1007.7 |
| 20260509081941 | 45 | 68 | 2.0 | 2.0 | 0.00 | 0.09 | 0.09 | 96 | 1007.6 |
| 20260509081557 | 46 | 281 | 0.0 | 1.0 | 0.02 | 0.17 | 0.09 | 95 | 1006.8 |
| 20260509081438 | 45 | 64 | 1.0 | 2.0 | 0.00 | 0.09 | 0.09 | 96 | 1007.7 |
| 20260509080935 | 46 | 56 | 2.0 | 2.0 | 0.00 | 0.09 | 0.09 | 96 | 1007.6 |
| 20260509080433 | 46 | 56 | 2.0 | 2.0 | 0.00 | 0.09 | 0.09 | 96 | 1007.5 |
| 20260509080056 | 46 | 281 | 0.0 | 0.0 | 0.04 | 0.17 | 0.09 | 95 | 1006.4 |
| 20260509075931 | 46 | 55 | 2.0 | 2.0 | 0.02 | 0.09 | 0.09 | 96 | 1007.6 |
| 20260509075428 | 46 | 57 | 1.0 | 2.0 | 0.02 | 0.09 | 0.09 | 96 | 1007.9 |
| 20260509074926 | 46 | 62 | 0.0 | 2.0 | 0.02 | 0.08 | 0.08 | 96 | 1007.8 |
| 20260509074423 | 46 | 59 | 2.0 | 3.0 | 0.02 | 0.08 | 0.08 | 96 | 1007.8 |
| 20260509073919 | 46 | 55 | 2.0 | 2.0 | 0.02 | 0.08 | 0.08 | 96 | 1007.9 |
| 20260509073415 | 46 | 57 | 2.0 | 3.0 | 0.02 | 0.08 | 0.08 | 96 | 1007.8 |
| 20260509073057 | 46 | 281 | 0.0 | 0.0 | 0.06 | 0.16 | 0.08 | 95 | 1006.8 |
| 20260509072912 | 46 | 64 | 2.0 | 2.0 | 0.02 | 0.07 | 0.07 | 95 | 1007.8 |
| 20260509072409 | 46 | 67 | 2.0 | 2.0 | 0.05 | 0.07 | 0.07 | 95 | 1007.9 |
| 20260509071905 | 46 | 60 | 2.0 | 2.0 | 0.07 | 0.07 | 0.07 | 95 | 1008.0 |
| 20260509071557 | 46 | 281 | 0.0 | 1.0 | 0.05 | 0.15 | 0.07 | 95 | 1006.9 |
| 20260509071402 | 46 | 70 | 2.0 | 3.0 | 0.07 | 0.07 | 0.07 | 95 | 1008.1 |
| 20260509070900 | 46 | 55 | 2.0 | 2.0 | 0.05 | 0.06 | 0.06 | 95 | 1008.3 |
| 20260509070356 | 45 | 58 | 2.0 | 2.0 | 0.05 | 0.06 | 0.06 | 95 | 1008.2 |
| 20260509070056 | 46 | 281 | 0.0 | 1.0 | 0.04 | 0.13 | 0.05 | 94 | 1007.1 |
| 20260509065852 | 45 | 55 | 2.0 | 2.0 | 0.07 | 0.05 | 0.05 | 95 | 1008.0 |
| 20260509065349 | 45 | 58 | 2.0 | 2.0 | 0.07 | 0.05 | 0.05 | 95 | 1007.9 |
| 20260509064844 | 45 | 68 | 2.0 | 2.0 | 0.07 | 0.04 | 0.04 | 95 | 1008.0 |
| 20260509064556 | 46 | 281 | 0.0 | 0.0 | 0.03 | 0.12 | 0.04 | 94 | 1007.0 |
| 20260509064342 | 45 | 62 | 2.0 | 3.0 | 0.05 | 0.03 | 0.03 | 94 | 1008.0 |
| 20260509063840 | 46 | 60 | 2.0 | 2.0 | 0.02 | 0.03 | 0.03 | 94 | 1008.2 |